Date String (YYYY-MM-DD hh:mm:ss) UTC,Instrument flags,Ambient pressure (hPa),Sample flow (lpm),Bypass flow (lpm),Sample temperature (°C),Ambient temperature (°C),ASC tube jacket temperature (°C),LED temperature (°C),Box temperature (°C),Sample RH (%),Span deviation,Mass concentration (μg/m³),Mass concentration (μg/m³),Mass concentration (μg/m³)
DateTimeUTC,F1_M11,P_M11,Q1_M11,Q2_M11,T1_M11,T2_M11,T3_M11,T4_M11,T5_M11,U1_M11,ZSPAN_M11,X2_M11,X0_M11,X1_M11
2023-02-09 22:00:00,,0833.4,5.02,0.00,23.7,23.0,00.0,32.5,25.5,06.4,0000.0,0001.06,0001.54,0000.87
2023-02-09 22:01:00,,0833.4,4.96,0.00,23.7,22.7,00.0,32.5,25.4,06.5,0000.0,0001.07,0001.55,0000.88
2023-02-09 22:02:00,,0833.4,5.03,0.00,23.7,22.4,00.0,32.6,25.3,06.5,0000.0,0001.12,0001.65,0000.89
2023-02-09 22:03:00,,0833.4,4.95,0.00,23.7,22.2,00.0,32.5,25.2,06.6,0000.0,0001.13,0001.68,0000.89
2023-02-09 22:04:00,,0833.4,5.03,0.00,23.6,22.0,00.0,32.5,25.1,06.6,0000.0,0001.15,0001.75,0000.91
2023-02-09 22:05:00,,0833.4,4.96,0.00,23.6,21.9,00.0,32.5,25.1,06.6,0000.0,0001.17,0001.78,0000.92
2023-02-09 22:06:00,,0833.5,5.03,0.00,23.6,21.8,00.0,32.5,25.1,06.4,0000.0,0001.20,0001.83,0000.92
2023-02-09 22:07:00,,0833.4,4.94,0.00,23.5,21.7,00.0,32.5,25.1,06.4,0000.0,0001.18,0001.79,0000.92
2023-02-09 22:08:00,,0833.5,5.04,0.00,23.5,21.6,00.0,32.5,25.0,06.5,0000.0,0001.18,0001.78,0000.92
2023-02-09 22:09:00,,0833.5,4.95,0.00,23.5,21.6,00.0,32.5,25.0,06.4,0000.0,0001.16,0001.68,0000.92
2023-02-09 22:10:00,,0833.5,5.03,0.00,23.4,21.5,00.0,32.4,25.0,06.5,0000.0,0001.14,0001.64,0000.92
2023-02-09 22:11:00,,0833.6,4.96,0.00,23.4,21.5,00.0,32.4,24.9,06.6,0000.0,0001.14,0001.67,0000.91
2023-02-09 22:12:00,,0833.6,5.01,0.00,23.4,21.4,00.0,32.4,24.9,06.7,0000.0,0001.14,0001.64,0000.92
2023-02-09 22:13:00,,0833.5,5.00,0.00,23.3,21.4,00.0,32.4,24.9,06.7,0000.0,0001.10,0001.55,0000.92
2023-02-09 22:14:00,,0833.6,4.97,0.00,23.3,21.3,00.0,32.3,24.9,06.7,0000.0,0001.10,0001.55,0000.90
2023-02-09 22:15:00,,0833.5,5.00,0.00,23.3,21.3,00.0,32.3,24.8,06.7,0000.0,0001.09,0001.70,0000.89
2023-02-09 22:16:00,,0833.6,4.98,0.00,23.2,21.5,00.0,32.3,24.8,06.8,0000.0,0001.07,0001.92,0000.88
2023-02-09 22:17:00,,0833.6,5.01,0.00,23.3,22.5,00.0,32.2,25.1,06.8,0000.0,0001.07,0001.92,0000.87
2023-02-09 22:18:00,,0833.6,4.96,0.00,23.4,23.3,00.0,32.2,25.3,06.6,0000.0,0001.09,0001.94,0000.88
2023-02-09 22:19:00,,0833.6,4.99,0.00,23.5,23.0,00.0,32.3,25.2,06.5,0000.0,0001.12,0002.03,0000.88
2023-02-09 22:20:00,,0833.6,5.03,0.00,23.5,22.6,00.0,32.3,25.1,06.7,0000.0,0001.16,0002.18,0000.89
2023-02-09 22:21:00,,0833.7,5.01,0.00,23.4,22.2,00.0,32.3,25.1,06.7,0000.0,0001.19,0002.62,0000.91
2023-02-09 22:22:00,,0833.6,4.94,0.00,23.4,22.0,00.0,32.3,25.0,06.6,0000.0,0001.19,0003.09,0000.92
2023-02-09 22:23:00,,0833.7,4.98,0.00,23.4,21.8,00.0,32.3,25.0,06.8,0000.0,0001.23,0003.22,0000.93
2023-02-09 22:24:00,,0833.7,5.01,0.00,23.3,21.7,00.0,32.3,24.9,06.8,0000.0,0001.25,0003.33,0000.94
2023-02-09 22:25:00,,0833.7,5.03,0.00,23.3,21.6,00.0,32.3,24.9,06.7,0000.0,0001.25,0003.40,0000.95
2023-02-09 22:26:00,,0833.6,5.02,0.00,23.3,21.5,00.0,32.3,24.9,06.7,0000.0,0001.26,0003.28,0000.97
2023-02-09 22:27:00,,0833.7,4.96,0.00,23.3,21.5,00.0,32.2,24.8,06.7,0000.0,0001.27,0003.05,0000.98
2023-02-09 22:28:00,,0833.6,4.97,0.00,23.2,21.4,00.0,32.2,24.8,06.8,0000.0,0001.26,0003.05,0000.99
2023-02-09 22:29:00,,0833.6,4.98,0.00,23.2,21.4,00.0,32.2,24.8,06.7,0000.0,0001.26,0003.06,0000.99
2023-02-09 22:30:00,,0833.7,5.04,0.00,23.3,22.2,00.0,32.2,25.0,06.6,0000.0,0001.23,0003.02,0000.98
2023-02-09 22:31:00,,0833.7,5.06,0.00,23.4,23.2,00.0,32.1,25.2,06.5,0000.0,0001.19,0002.85,0000.97
2023-02-09 22:32:00,,0833.7,5.00,0.00,23.4,23.1,00.0,32.2,25.2,06.3,0000.0,0001.14,0003.24,0000.95
2023-02-09 22:33:00,,0833.7,5.03,0.00,23.4,22.7,00.0,32.2,25.1,06.4,0000.0,0001.12,0003.26,0000.93
2023-02-09 22:34:00,,0833.7,5.00,0.00,23.4,22.4,00.0,32.2,25.0,06.4,0000.0,0001.09,0003.32,0000.92
2023-02-09 22:35:00,,0833.7,5.06,0.00,23.4,22.1,00.0,32.2,25.0,06.4,0000.0,0001.07,0003.63,0000.91
2023-02-09 22:36:00,,0833.8,5.07,0.00,23.3,21.9,00.0,32.2,24.9,06.5,0000.0,0001.10,0003.85,0000.91
2023-02-09 22:37:00,,0833.8,5.01,0.00,23.3,21.7,00.0,32.2,24.9,06.6,0000.0,0001.10,0003.84,0000.90
2023-02-09 22:38:00,,0833.9,4.97,0.00,23.3,21.6,00.0,32.2,24.9,06.5,0000.0,0001.08,0003.78,0000.90
2023-02-09 22:39:00,,0833.9,5.02,0.00,23.2,21.5,00.0,32.2,24.8,06.6,0000.0,0001.07,0003.79,0000.89
2023-02-09 22:40:00,,0833.9,5.00,0.00,23.2,21.5,00.0,32.2,24.8,06.8,0000.0,0001.09,0003.84,0000.89
2023-02-09 22:41:00,,0833.9,5.04,0.00,23.2,21.5,00.0,32.2,24.8,06.7,0000.0,0001.14,0004.02,0000.90
2023-02-09 22:42:00,,0833.9,5.00,0.00,23.2,21.4,00.0,32.2,24.8,06.7,0000.0,0001.16,0004.16,0000.92
2023-02-09 22:43:00,,0833.9,4.96,0.00,23.2,21.4,00.0,32.1,24.8,06.8,0000.0,0001.21,0003.61,0000.93
2023-02-09 22:44:00,,0833.9,5.03,0.00,23.1,21.4,00.0,32.1,24.8,06.8,0000.0,0001.24,0003.03,0000.95
2023-02-09 22:45:00,,0833.9,5.04,0.00,23.1,21.5,00.0,32.1,24.8,06.9,0000.0,0001.24,0002.93,0000.96
2023-02-09 22:46:00,,0833.9,5.05,0.00,23.2,22.2,00.0,32.1,25.0,06.9,0000.0,0001.25,0002.44,0000.96
2023-02-09 22:47:00,,0833.9,4.97,0.00,23.3,23.2,00.0,32.1,25.2,06.7,0000.0,0001.22,0002.20,0000.96
2023-02-09 22:48:00,,0833.9,5.00,0.00,23.4,23.1,00.0,32.1,25.2,06.6,0000.0,0001.23,0002.28,0000.97
2023-02-09 22:49:00,,0833.8,4.98,0.00,23.4,22.8,00.0,32.1,25.2,06.7,0000.0,0001.25,0002.55,0000.98
2023-02-09 22:50:00,,0833.9,5.01,0.00,23.4,22.4,00.0,32.2,25.1,06.8,0000.0,0001.29,0003.25,0000.99
2023-02-09 22:51:00,,0833.8,5.01,0.00,23.4,22.2,00.0,32.2,25.1,06.9,0000.0,0001.33,0003.43,0001.01
2023-02-09 22:52:00,,0833.8,5.04,0.00,23.3,22.1,00.0,32.2,25.0,06.7,0000.0,0001.30,0003.28,0001.01
2023-02-09 22:53:00,,0833.9,4.99,0.00,23.3,21.9,00.0,32.2,25.0,06.5,0000.0,0001.32,0003.33,0001.01
2023-02-09 22:54:00,,0833.9,5.00,0.00,23.3,21.8,00.0,32.2,25.0,06.5,0000.0,0001.32,0003.26,0001.02
2023-02-09 22:55:00,,0834.0,5.00,0.00,23.3,21.7,00.0,32.2,24.9,06.5,0000.0,0001.34,0003.21,0001.03
2023-02-09 22:56:00,,0834.0,5.01,0.00,23.3,21.6,00.0,32.2,24.9,06.6,0000.0,0001.36,0003.28,0001.03
2023-02-09 22:57:00,,0834.0,4.98,0.00,23.2,21.6,00.0,32.2,24.9,06.6,0000.0,0001.37,0003.32,0001.05
2023-02-09 22:58:00,,0834.0,4.97,0.00,23.2,21.5,00.0,32.2,24.8,06.5,0000.0,0001.37,0003.28,0001.06
2023-02-09 22:59:00,,0834.0,5.07,0.00,23.2,21.5,00.0,32.1,24.9,06.5,0000.0,0001.39,0003.22,0001.06
